Weather WX

World > North America > United States > Ohio

Kenmore, Ohio Regional Weather

Lat: 41.04N, Lon: 81.56W
Wx Zone: OHZ021
Warning FLW WEATHER ALERT - (More Info. Click Here) Warning
Feedback

Kenmore, OH Regional Weather

Expires:201907172200;;216116
ASUS41 KCLE 172112
RWRCLE
OHIO REGIONAL WEATHER ROUNDUP
NATIONAL WEATHER SERVICE WILMINGTON, OH
500 PM EDT WED JUL 17 2019

NOTE: "FAIR" INDICATES FEW OR NO CLOUDS BELOW 12,000 FEET WITH NO
SIGNIFICANT WEATHER AND/OR OBSTRUCTIONS TO VISIBILITY.


OHZ009>014-019>023-028>033-038-089-172200-
   NORTHEAST OHIO
  
CITY           SKY/WX    TMP DP  RH WIND       PRES   REMARKS
CLE-HOPKINS    FAIR      84  72  67 N9        29.90S                  
CLE-LAKEFRONT  FAIR      80  73  79 NW6       29.88S                  
CUY CO. ARPT   PTSUNNY   79  72  78 N6        29.89S                  
LORAIN-ELYRIA  FAIR      83  68  60 NE10      29.89S                  
ASHTABULA      FAIR      78  74  87 N3        29.90S                  
AKRON-CANTON   LGT RAIN  78  73  84 NW6       29.89S                  
WOOSTER        PTSUNNY   81  75  82 VRB3      29.89S                  
MANSFIELD      FAIR      82  72  71 NW9       29.90S                  
YOUNGSTOWN     PTSUNNY   78  72  81 SW9       29.88F                  
$$
 

SKY/WX - Weather  TMP - Temperature  DP - Dew Point  RH - Relative Humidity
WIND - Wind Direction/Speed PRES - Barometric Pressure VSB - Visibility
WCI - Wind Chill Index E13G22 Wind - East Wind 13 mph/Gusts of 22 mph